Wind_Speed
39 40 41 42 43 44 46 47 49 50 49 49 48 47 44 43 42 41 38 38 37 35 34 31 29 27 25 24 23 22 22 22 21 21 21 21 22 22 22 22 22 22 22
38 39 40 41 43 44 45 47 48 49 50 51 51 50 49 47 46 44 42 39 36 35 34 33 32 30 27 26 25 24 24 24 24 23 23 23 23 24 24 25 25 25 25
34 36 38 39 41 42 43 44 46 47 48 49 50 50 50 51 50 47 44 42 38 36 34 33 33 31 28 26 26 26 24 24 24 25 25 25 25 26 26 26 27 27 27
30 31 32 33 35 37 38 40 42 44 45 47 47 49 49 49 49 47 47 45 42 39 36 33 31 29 28 27 27 26 25 25 26 26 27 28 27 27 28 28 28 28 28
27 26 27 27 27 29 30 32 34 36 39 40 42 44 45 46 47 46 45 44 43 40 37 34 32 30 29 28 28 27 27 26 26 27 27 28 29 29 29 29 29 30 30
22 22 23 23 23 23 23 24 25 27 30 33 34 37 40 41 42 43 43 43 41 39 37 36 34 32 31 30 30 29 29 28 28 28 28 29 30 32 31 30 31 31 31
19 20 21 21 19 18 17 17 18 20 22 24 26 28 32 35 37 37 38 39 38 37 36 36 35 33 32 32 31 31 31 30 30 29 29 30 30 32 33 33 32 32 32
17 18 19 18 16 14 13 12 12 13 13 15 17 21 24 27 30 32 33 34 34 34 34 34 33 33 32 32 32 32 31 31 31 30 31 31 31 32 33 33 34 34 34
16 17 17 15 13 11 10 8 8 7 8 8 10 13 18 21 23 26 28 28 29 31 31 32 32 32 32 33 33 32 32 32 32 32 32 32 32 32 32 33 33 34 35
18 17 17 16 14 12 11 9 7 6 6 5 5 8 10 13 16 20 23 25 26 27 28 29 30 31 32 32 33 33 32 33 33 33 33 32 32 34 33 33 34 35 35
19 19 19 18 17 16 15 13 11 9 8 7 5 2 4 8 11 13 16 19 21 23 25 27 28 29 30 31 32 33 34 34 34 34 34 33 33 34 34 35 34 34 34
20 20 20 19 19 18 18 16 15 13 11 9 8 6 3 1 4 8 11 14 17 19 21 23 25 26 28 30 31 33 34 34 34 34 34 34 34 34 33 33 32 32 32
21 22 22 21 20 19 19 18 18 16 14 12 10 9 6 4 1 2 5 9 12 15 18 20 22 24 26 28 30 31 32 33 33 33 32 32 32 32 31 31 31 31 30
21 22 22 22 21 21 20 20 20 19 17 16 14 12 10 8 6 4 2 4 6 9 12 15 18 20 23 25 26 27 28 29 30 30 30 29 30 30 29 28 28 29 29
21 21 21 22 22 22 22 21 20 19 19 18 16 15 13 11 9 7 6 4 5 6 8 10 12 15 17 20 22 24 24 26 26 26 26 27 27 26 25 25 24 25 25
21 21 22 22 22 22 22 22 21 20 20 19 18 16 14 13 11 10 9 7 6 6 7 8 10 12 14 16 18 20 22 24 24 24 24 24 23 24 24 24 22 21 20
20 21 21 21 21 21 21 21 21 20 20 20 19 18 17 17 15 13 12 10 9 8 8 8 9 10 12 13 15 17 19 20 21 21 21 22 22 22 22 22 21 20 19
19 20 20 20 20 20 20 20 20 20 20 20 19 19 19 18 17 16 15 14 12 11 9 8 7 8 9 10 12 13 15 16 18 19 19 19 20 20 19 19 19 17 17
17 18 18 19 19 19 19 19 19 19 20 20 19 19 19 19 19 18 17 17 15 14 11 9 7 7 7 8 9 10 12 14 16 17 17 18 18 18 17 17 17 17 16
16 16 17 17 18 18 19 19 19 20 20 20 20 20 20 20 20 20 20 19 18 17 15 11 9 7 6 6 6 7 9 11 14 16 17 17 17 17 17 16 16 16 16
15 15 15 16 17 17 18 18 19 20 20 20 20 20 20 21 21 21 21 21 20 19 17 14 10 7 5 4 3 3 6 8 11 14 16 17 17 16 17 16 16 16 15
14 14 15 15 16 16 17 17 18 19 19 20 20 20 21 21 22 22 22 21 21 21 19 16 13 10 7 5 3 1 2 5 9 12 14 15 16 16 16 16 15 15 15
13 14 14 14 15 15 16 17 17 18 19 20 20 20 21 22 22 22 23 22 21 21 21 19 16 13 10 9 7 6 5 6 8 10 13 15 15 15 15 15 15 14 14
12 13 13 13 14 14 15 16 16 18 19 19 20 20 21 22 23 23 23 22 22 22 21 20 19 16 14 12 10 10 10 10 10 11 12 12 13 14 14 14 14 13 13
11 11 12 12 13 13 13 14 15 16 18 19 20 20 21 21 22 23 23 22 22 22 22 21 20 19 17 16 14 13 13 13 13 13 12 12 12 13 13 13 12 12 12
10 10 10 11 11 12 13 13 14 15 16 18 19 19 20 21 22 22 22 22 22 22 21 21 21 20 19 18 17 16 15 15 15 14 13 13 13 13 13 12 12 12 12
Wind_Direction
277 275 273 270 268 266 263 261 260 258 257 255 254 254 253 251 251 249 249 249 248 246 244 244 244 245 245 246 248 248 247 245 245 246 245 246 244 244 244 245 245 244 244
280 279 276 274 272 269 267 264 262 261 259 257 255 254 254 252 251 251 251 251 251 248 246 245 246 246 245 246 248 249 248 248 249 248 248 247 246 247 247 248 248 248 248
285 284 281 280 277 273 270 267 266 264 262 260 257 254 253 253 252 252 252 253 253 249 247 247 246 248 248 248 248 249 250 251 252 252 250 249 249 249 250 250 251 251 251
296 293 289 285 281 277 273 271 268 266 264 261 259 255 253 252 251 251 252 252 251 250 249 248 248 249 249 249 249 251 252 251 251 253 252 250 250 251 252 253 253 253 253
302 301 298 294 288 283 280 275 271 267 264 261 258 255 251 250 250 250 250 249 249 249 248 248 251 251 251 250 251 253 252 251 253 253 251 251 251 251 252 254 255 256 255
309 309 308 304 298 292 286 281 275 269 264 259 255 251 249 248 249 249 249 248 247 249 249 249 249 250 252 251 251 252 251 251 253 253 252 252 252 251 251 251 254 255 255
317 316 316 313 308 301 296 290 283 277 267 260 254 249 246 244 244 245 246 246 246 247 249 249 248 249 250 248 249 250 251 252 252 253 254 254 254 252 249 249 252 253 254
333 332 330 326 321 315 308 300 296 286 277 269 260 250 242 237 239 240 241 243 244 246 246 248 248 247 247 248 248 248 251 251 252 254 256 256 254 253 249 249 250 252 254
353 349 349 352 351 342 336 328 317 302 291 280 269 253 238 232 233 235 237 238 241 243 245 247 247 248 247 246 247 247 249 250 252 255 256 256 255 253 251 250 250 252 253
14 18 18 18 20 21 18 13 4 345 318 304 278 259 239 230 228 230 233 237 238 240 242 244 245 245 245 245 245 247 247 249 251 253 254 255 254 251 251 252 251 251 252
33 32 32 33 34 35 34 35 30 27 29 27 26 349 235 224 225 227 231 235 238 239 242 243 243 244 245 246 246 247 248 250 252 254 254 255 254 252 252 250 251 250 251
39 39 39 40 41 41 41 42 40 42 43 47 51 50 48 191 224 229 232 237 240 241 243 243 243 245 246 247 247 248 249 250 252 253 254 254 254 254 251 249 250 250 252
43 44 45 44 44 44 45 45 45 47 50 54 53 48 46 47 17 269 251 245 246 247 248 248 248 248 248 249 249 248 248 249 250 251 252 252 250 249 246 249 249 250 250
46 47 47 46 47 48 50 51 50 50 51 52 51 49 49 49 47 30 344 282 267 259 253 252 250 250 249 249 249 248 248 246 246 247 246 247 246 245 244 246 245 246 246
48 47 46 47 48 50 50 52 52 51 51 51 50 49 47 44 40 32 17 347 316 290 270 261 256 253 250 248 246 246 246 245 244 243 241 240 241 239 238 238 240 241 242
48 48 49 49 51 50 51 51 52 53 52 51 50 48 45 40 34 27 18 0 339 318 296 279 268 259 253 249 247 245 244 242 241 239 236 235 235 233 231 232 232 230 228
47 48 48 48 51 52 51 51 51 51 50 48 46 44 41 38 34 29 20 9 354 334 317 298 283 272 263 257 252 250 246 242 237 235 236 235 233 229 226 224 223 222 219
46 47 47 48 48 49 49 49 49 47 46 44 42 40 37 34 30 26 21 16 8 357 339 320 303 288 274 264 257 252 244 237 232 231 229 228 226 222 218 216 211 207 204
44 45 45 46 47 47 47 47 45 44 42 40 38 37 34 32 28 24 20 16 11 5 356 341 325 307 290 276 264 252 240 233 228 223 218 217 217 212 207 205 206 207 208
41 42 43 43 44 44 44 44 43 42 40 38 36 34 31 28 25 22 20 17 13 10 5 357 345 330 312 295 274 250 237 229 222 214 211 210 209 204 203 204 206 207 207
36 37 37 38 40 41 41 41 40 38 36 36 34 32 29 26 24 22 19 17 16 14 13 11 7 0 354 337 308 259 238 225 213 208 208 208 204 200 198 199 201 204 205
33 34 35 37 39 39 39 39 38 36 34 33 32 30 28 26 25 23 21 20 21 21 23 24 25 25 30 33 29 70 183 195 190 190 191 192 192 193 194 199 202 204 207
30 31 33 34 36 36 36 36 36 34 33 32 31 30 28 27 26 25 24 25 26 27 30 32 35 39 44 52 63 81 106 132 155 165 169 174 181 187 188 194 197 200 203
24 27 29 31 32 34 34 34 33 32 31 31 30 29 28 28 27 28 28 30 31 32 34 37 41 46 51 57 70 81 90 106 124 138 147 157 167 172 175 179 184 188 190
15 19 23 26 28 30 30 28 27 27 27 28 28 28 28 29 29 30 30 33 35 37 38 41 44 49 55 59 68 77 86 95 104 116 125 133 143 153 159 165 171 174 176
4 9 14 18 21 24 25 25 25 25 25 26 27 28 28 29 31 32 33 34 36 39 41 44 47 52 57 63 70 78 84 91 98 106 117 125 132 138 144 149 153 157 160
Height
5855 5853 5851 5849 5848 5847 5847 5847 5847 5847 5848 5849 5850 5851 5852 5854 5856 5857 5858 5860 5863 5865 5867 5869 5871 5873 5875 5878 5880 5881 5883 5884 5886 5887 5889 5890 5891 5892 5894 5895 5896 5897 5898
5844 5842 5839 5838 5836 5835 5834 5834 5834 5835 5836 5837 5838 5839 5841 5844 5846 5848 5850 5852 5855 5857 5859 5862 5864 5866 5868 5871 5873 5875 5876 5878 5880 5882 5883 5884 5886 5887 5888 5889 5891 5892 5893
5835 5832 5829 5826 5824 5822 5821 5821 5821 5821 5822 5824 5825 5827 5830 5832 5835 5838 5840 5843 5846 5849 5852 5854 5856 5858 5861 5863 5865 5868 5870 5872 5873 5875 5877 5878 5880 5881 5882 5883 5884 5886 5887
5826 5822 5819 5816 5813 5810 5809 5808 5808 5808 5809 5810 5812 5815 5818 5821 5824 5827 5830 5834 5837 5841 5844 5846 5849 5851 5853 5856 5858 5860 5862 5864 5866 5868 5869 5871 5873 5874 5876 5877 5878 5879 5880
5818 5814 5811 5807 5804 5801 5799 5797 5796 5796 5796 5797 5799 5802 5805 5809 5812 5816 5820 5824 5828 5832 5835 5838 5841 5843 5845 5848 5850 5853 5854 5856 5858 5860 5862 5863 5865 5867 5869 5870 5871 5872 5873
5812 5808 5804 5800 5796 5793 5790 5788 5787 5786 5785 5786 5788 5790 5794 5798 5802 5806 5810 5814 5818 5822 5825 5829 5832 5834 5837 5840 5842 5844 5847 5849 5851 5853 5854 5856 5857 5859 5861 5862 5863 5865 5866
5808 5803 5799 5794 5790 5787 5784 5782 5781 5779 5778 5778 5779 5781 5784 5788 5792 5797 5801 5805 5808 5812 5816 5819 5823 5826 5828 5831 5833 5836 5838 5840 5843 5845 5847 5848 5850 5851 5853 5854 5856 5857 5859
5804 5800 5795 5790 5786 5783 5780 5778 5776 5775 5773 5772 5773 5774 5776 5780 5784 5789 5792 5796 5800 5804 5807 5810 5814 5816 5819 5822 5825 5827 5830 5832 5834 5836 5838 5840 5841 5843 5845 5847 5848 5849 5851
5802 5798 5793 5788 5784 5781 5778 5776 5774 5772 5770 5769 5769 5770 5771 5774 5777 5781 5785 5789 5792 5796 5799 5802 5805 5808 5810 5813 5816 5819 5822 5824 5826 5828 5830 5831 5833 5835 5836 5838 5839 5841 5843
5803 5798 5793 5789 5785 5782 5779 5776 5774 5771 5769 5768 5768 5768 5768 5770 5773 5776 5779 5783 5786 5789 5792 5794 5797 5800 5802 5804 5808 5810 5813 5815 5817 5819 5821 5823 5824 5826 5828 5829 5830 5832 5834
5805 5800 5795 5791 5787 5784 5781 5778 5775 5773 5771 5769 5768 5768 5768 5769 5771 5773 5776 5778 5780 5782 5785 5787 5789 5792 5794 5796 5799 5801 5804 5806 5808 5810 5811 5813 5815 5817 5818 5820 5822 5823 5825
5808 5803 5799 5795 5791 5788 5784 5781 5778 5775 5773 5772 5771 5770 5769 5770 5770 5771 5773 5774 5776 5777 5779 5781 5782 5784 5786 5788 5790 5793 5795 5797 5799 5800 5802 5804 5806 5807 5809 5811 5813 5815 5817
5811 5807 5803 5799 5795 5792 5788 5785 5782 5779 5776 5775 5773 5772 5771 5771 5770 5771 5771 5771 5772 5773 5774 5775 5776 5778 5779 5781 5782 5784 5786 5788 5790 5791 5793 5795 5797 5799 5801 5803 5805 5807 5809
5815 5811 5807 5804 5800 5796 5793 5789 5786 5783 5781 5778 5777 5775 5773 5772 5771 5771 5770 5770 5770 5770 5770 5770 5771 5772 5772 5773 5775 5776 5778 5780 5782 5783 5785 5787 5789 5791 5793 5795 5797 5799 5801
5819 5816 5812 5808 5804 5801 5797 5794 5791 5788 5785 5783 5780 5778 5776 5775 5773 5772 5771 5770 5769 5768 5767 5767 5767 5766 5767 5767 5768 5769 5771 5772 5774 5776 5778 5780 5782 5784 5786 5788 5790 5793 5795
5823 5820 5816 5812 5809 5805 5802 5799 5795 5793 5790 5787 5784 5782 5780 5777 5775 5773 5771 5769 5768 5766 5765 5763 5763 5762 5762 5762 5762 5763 5764 5766 5767 5769 5771 5773 5775 5777 5780 5782 5785 5787 5789
5828 5824 5820 5817 5813 5810 5807 5804 5800 5797 5794 5791 5788 5785 5783 5780 5777 5774 5772 5769 5766 5764 5762 5760 5759 5758 5757 5756 5757 5757 5758 5759 5761 5763 5765 5767 5769 5772 5775 5777 5780 5782 5785
5831 5828 5825 5821 5818 5814 5811 5808 5805 5802 5798 5795 5792 5788 5785 5782 5779 5776 5772 5769 5765 5762 5759 5757 5755 5753 5752 5752 5752 5752 5752 5753 5755 5757 5760 5762 5764 5767 5770 5773 5776 5778 5782
5835 5832 5828 5825 5822 5819 5815 5812 5809 5805 5802 5798 5795 5791 5788 5784 5781 5777 5772 5769 5765 5761 5757 5754 5752 5750 5749 5748 5747 5747 5748 5749 5750 5752 5755 5758 5760 5763 5767 5770 5773 5775 5779
5838 5835 5832 5829 5825 5822 5819 5816 5812 5809 5805 5802 5798 5794 5791 5787 5782 5778 5774 5769 5764 5760 5755 5752 5749 5747 5745 5744 5743 5743 5743 5744 5746 5748 5751 5754 5757 5760 5763 5767 5770 5773 5776
5841 5838 5835 5832 5829 5825 5822 5819 5816 5812 5809 5805 5801 5797 5793 5789 5784 5780 5775 5770 5765 5760 5755 5751 5747 5745 5743 5742 5741 5740 5740 5741 5742 5744 5747 5750 5754 5757 5761 5764 5768 5771 5774
5843 5840 5838 5835 5832 5828 5825 5822 5819 5815 5812 5808 5804 5800 5796 5791 5786 5781 5776 5771 5766 5761 5756 5752 5748 5745 5743 5741 5740 5739 5739 5739 5740 5742 5745 5748 5752 5756 5759 5763 5766 5770 5773
5846 5843 5840 5837 5834 5831 5828 5825 5822 5818 5815 5811 5807 5803 5799 5794 5789 5784 5779 5774 5769 5764 5759 5755 5751 5748 5745 5743 5741 5740 5739 5739 5740 5742 5745 5748 5751 5755 5758 5762 5765 5768 5771
5848 5845 5842 5839 5836 5834 5831 5828 5825 5821 5818 5814 5810 5806 5802 5797 5792 5787 5782 5777 5772 5768 5763 5759 5755 5752 5749 5746 5745 5743 5742 5742 5743 5744 5746 5749 5752 5755 5758 5761 5765 5767 5770
5849 5846 5844 5841 5838 5836 5833 5830 5827 5824 5820 5817 5813 5809 5805 5800 5796 5791 5786 5782 5777 5773 5768 5764 5760 5757 5754 5751 5749 5748 5747 5747 5747 5748 5750 5752 5754 5757 5760 5762 5765 5768 5770
5850 5847 5845 5843 5840 5837 5835 5832 5829 5826 5822 5819 5815 5812 5808 5804 5800 5795 5791 5786 5782 5778 5774 5770 5766 5763 5760 5757 5755 5754 5753 5753 5753 5754 5755 5756 5758 5760 5762 5764 5767 5769 5771